Vertical_Velocity
1 2 0 3 1 1 1 0 -1 0 -1 -1 0 -3 -3 -4 -1 -2 2 1 1 0 1 -0 -0 0 2 2 2 0 -2 -3 1 -2 4 -1 1 5 2 1 -3 -1 1 2 1
-0 1 1 -1 -1 -0 0 2 -1 2 -2 -1 -1 -0 -3 -5 -4 -1 7 1 -1 1 1 1 2 0 0 2 0 0 -6 -4 0 1 -3 4 4 7 -1 -5 -9 -4 -2 1 -0
-3 -1 0 -1 0 1 6 1 -1 1 1 -1 -0 -2 -1 -5 -5 11 -5 2 -3 0 -1 1 1 0 1 3 1 -1 -11 4 2 0 1 -0 1 -1 -1 -4 1 2 -2 -2 -3
1 3 -4 -2 0 1 -0 3 3 1 -0 2 -2 -0 -3 -2 -7 -1 -3 2 2 -4 2 1 1 1 -1 -0 4 -2 -3 -0 2 1 2 2 -1 -2 -4 -6 0 -4 -2 -2 1
-2 -1 -1 -5 -3 2 -0 1 1 -2 3 2 -0 -1 -2 -7 -8 2 -4 1 1 1 -1 0 -2 0 0 0 -0 -1 3 -2 -1 0 -3 -3 2 0 1 -4 4 -2 -1 -1 -3
0 0 2 -2 -1 -1 1 2 1 2 4 0 -0 -1 -3 -25 12 -0 1 -1 3 -2 -1 -3 1 -1 -2 -2 1 0 1 -1 2 0 -8 -2 2 -3 -3 4 0 -3 1 -1 -6
1 0 0 -2 -1 -3 -1 3 -2 1 7 -1 -0 -4 -10 -18 -0 -1 -1 -0 -3 6 -0 -1 2 2 -1 6 -1 0 -1 0 -0 5 -5 1 -8 -12 11 0 -3 -4 1 -3 -0
-1 1 1 2 0 2 0 -2 7 3 2 0 2 -3 -29 -1 3 -7 -1 4 1 1 6 -2 0 2 1 3 2 2 5 0 1 6 -1 12 -36 -5 14 4 -2 -4 3 1 4
-0 -0 -0 0 1 1 -1 9 -2 7 4 -1 -1 -3 -14 -10 -14 17 -1 6 1 2 3 1 1 1 3 3 4 3 -7 -3 -6 4 8 11 -21 -1 15 2 -4 0 5 -2 -4
-0 1 -1 2 1 0 -3 5 8 14 7 0 1 9 3 -14 8 22 7 5 5 2 4 1 2 -0 1 5 -21 -16 -2 -1 -13 -1 5 8 -23 0 5 4 -2 -1 3 -0 -8
-0 1 -1 -1 0 -0 5 -6 17 -8 -6 -8 9 -6 0 -2 -13 -3 1 -2 2 2 -4 -2 -1 -18 -7 -5 3 12 2 -0 -8 9 -2 -3 -5 -12 10 -3 -1 -3 -6 -7 -12
-1 0 -0 -1 0 -0 -4 -16 17 -5 1 -5 2 -5 12 -1 7 4 -3 -6 -1 -5 4 -1 -27 5 5 7 3 5 3 -6 -8 0 14 0 -10 -3 3 -3 -2 2 -0 -0 -4
-2 -0 -1 -1 1 -9 -7 2 14 -1 17 -14 5 -3 19 1 3 -3 -6 4 -5 1 -7 -8 10 3 1 2 6 3 1 -10 -13 9 12 -0 -9 -11 -1 -3 -4 0 2 4 -10
2 1 2 4 -11 -0 -4 17 15 7 13 -19 -32 -32 -31 14 -33 12 7 14 5 -16 13 -1 19 5 3 -4 10 -4 -7 -0 6 12 -5 11 -14 -8 -18 -6 -1 -8 2 -3 -1
4 4 3 -1 -5 -4 12 13 7 -2 10 -3 -14 34 9 -49 43 -34 9 5 -3 2 5 -37 -13 -6 -14 -15 3 -7 3 3 11 2 10 3 10 -32 4 -2 -14 -8 -10 -4 3
4 5 4 -2 -8 12 8 7 11 37 -4 -19 21 -7 -3 5 0 8 3 13 22 9 -5 2 5 -1 -9 15 2 15 3 3 3 5 14 -4 5 -27 -8 -16 -10 2 -0 -1 -4
2 4 -3 -3 2 9 14 6 21 18 4 -16 1 -14 -1 14 18 11 -7 -2 -27 6 -6 23 -7 -1 3 7 10 17 13 3 4 6 -7 -9 6 -30 6 -7 -7 1 2 6 -1
5 5 5 -3 4 9 15 11 24 -24 -8 -4 1 2 -17 8 2 -11 11 11 11 -11 17 -10 7 -10 7 -7 -23 -24 -13 -15 -7 -3 -5 -1 -16 -31 -7 3 -2 -2 1 -7 -10
6 5 -11 8 7 9 22 9 -23 10 -13 -27 15 14 3 13 2 5 5 -6 -1 -12 -26 1 -12 10 5 4 4 -2 -13 13 4 2 1 -6 -2 -14 -14 -14 -3 -5 -1 -8 -3
-3 5 -20 17 8 17 29 -29 -11 -13 2 37 4 4 -2 -15 22 18 3 -20 -4 -13 21 3 6 -13 5 25 11 -15 18 8 5 -1 -1 -3 -4 -14 -11 -9 -1 -5 -6 -2 -5
0 -4 12 10 14 37 8 -29 -12 -17 10 22 -6 -5 -14 -2 -12 -7 -22 3 22 7 18 7 9 -2 21 -19 -35 8 10 5 3 -9 -5 -2 -27 -15 -8 -9 -11 -8 -8 -1 -2
9 -13 7 18 10 -3 3 -34 -5 -14 7 12 9 -7 8 17 2 6 -28 -12 -2 22 -29 -18 17 5 -29 -9 12 10 -21 -8 5 -3 -5 4 -66 -5 -0 -6 -9 -8 -1 2 -2
3 -2 9 15 -13 0 10 -22 -12 -1 -3 -3 9 -9 -11 30 14 7 -18 10 5 16 -25 -17 -18 7 13 25 14 -19 -4 18 26 11 -16 -2 -55 -16 -3 -5 -11 -6 -4 -5 -4
26 -4 28 -2 -4 9 13 -2 1 -6 -5 -7 -6 14 31 14 16 -7 -23 15 -3 6 20 37 5 -17 -25 -58 7 1 -10 -3 6 15 -29 -39 3 -1 -10 -5 -4 -7 -1 1 -2
14 -21 -15 -26 -41 -20 7 -11 13 -12 -21 17 0 22 -9 4 -5 1 4 15 3 -3 4 14 -15 4 -20 18 8 -6 1 1 4 -44 12 -40 -20 6 -3 -9 -9 2 2 -2 -6
-6 -19 -5 11 26 2 7 -25 5 14 3 -16 -22 4 4 -14 -9 5 20 -7 -13 14 6 11 -16 16 -1 11 5 5 15 8 -12 5 16 20 -34 10 -1 -2 -1 3 -6 -6 -4
3 15 9 -2 6 13 -47 -38 -48 40 11 7 -9 34 13 -63 -4 10 1 23 9 2 -5 11 1 7 -31 19 9 14 -62 17 16 13 -7 -18 -20 -21 -2 -6 -9 -8 2 -1 -2
Height
3103 3107 3112 3115 3119 3121 3125 3128 3131 3133 3134 3137 3138 3141 3142 3145 3148 3149 3152 3157 3157 3159 3161 3163 3164 3165 3167 3168 3169 3169 3171 3170 3171 3172 3173 3174 3175 3175 3176 3176 3177 3178 3177 3178 3179
3095 3099 3104 3107 3111 3115 3118 3121 3124 3127 3129 3132 3133 3134 3138 3140 3144 3147 3151 3152 3154 3156 3158 3160 3162 3163 3164 3166 3166 3167 3168 3169 3170 3170 3171 3171 3173 3173 3175 3174 3176 3176 3176 3176 3177
3087 3090 3095 3099 3103 3108 3112 3115 3118 3121 3124 3126 3129 3130 3132 3135 3141 3145 3145 3147 3150 3152 3154 3156 3158 3160 3162 3163 3164 3164 3165 3168 3168 3169 3169 3170 3170 3171 3172 3173 3173 3174 3174 3174 3174
3077 3082 3086 3090 3095 3100 3103 3108 3112 3114 3118 3120 3122 3125 3127 3130 3139 3138 3141 3143 3146 3148 3151 3152 3154 3156 3158 3160 3162 3161 3163 3165 3166 3167 3168 3168 3169 3169 3169 3171 3170 3171 3170 3171 3171
3067 3073 3077 3083 3086 3091 3096 3100 3105 3107 3111 3113 3115 3119 3121 3122 3129 3135 3135 3136 3141 3144 3146 3148 3150 3152 3154 3156 3157 3157 3159 3162 3162 3164 3165 3165 3166 3167 3166 3168 3166 3167 3167 3167 3167
3057 3063 3068 3073 3078 3082 3088 3092 3096 3100 3103 3106 3107 3111 3113 3112 3129 3129 3132 3134 3136 3139 3140 3143 3146 3148 3150 3152 3154 3154 3155 3158 3158 3160 3161 3162 3163 3162 3165 3165 3162 3164 3163 3164 3164
3047 3051 3058 3064 3070 3074 3079 3085 3089 3092 3095 3098 3099 3100 3100 3108 3118 3122 3126 3131 3130 3135 3137 3138 3142 3145 3146 3149 3149 3151 3151 3153 3155 3155 3156 3158 3157 3155 3163 3160 3160 3161 3161 3162 3161
3039 3043 3046 3053 3060 3066 3072 3077 3081 3084 3087 3089 3091 3091 3084 3105 3113 3113 3119 3123 3129 3130 3134 3135 3138 3140 3141 3144 3145 3147 3147 3148 3151 3153 3154 3154 3149 3155 3158 3155 3156 3157 3157 3159 3160
3033 3035 3038 3042 3049 3057 3064 3067 3073 3076 3078 3081 3084 3084 3078 3091 3102 3111 3113 3117 3124 3126 3128 3131 3134 3135 3138 3139 3142 3141 3141 3142 3146 3149 3150 3148 3145 3150 3153 3151 3153 3152 3154 3156 3157
3028 3030 3032 3035 3039 3046 3054 3061 3066 3066 3067 3072 3075 3081 3074 3080 3097 3103 3106 3114 3117 3121 3122 3125 3127 3128 3129 3132 3130 3136 3136 3137 3139 3145 3144 3143 3141 3143 3147 3147 3149 3149 3150 3151 3153
3022 3024 3026 3029 3032 3035 3044 3054 3060 3061 3053 3057 3062 3064 3069 3075 3086 3090 3098 3106 3111 3113 3112 3116 3119 3113 3122 3128 3131 3133 3133 3134 3137 3140 3139 3138 3136 3137 3140 3142 3143 3144 3145 3146 3147
3015 3018 3020 3023 3025 3028 3032 3041 3048 3048 3046 3047 3051 3054 3064 3069 3074 3083 3091 3095 3099 3100 3105 3111 3099 3111 3122 3125 3126 3127 3128 3130 3133 3135 3134 3133 3130 3132 3133 3135 3138 3139 3139 3140 3142
3008 3011 3014 3016 3018 3020 3026 3033 3041 3041 3038 3034 3040 3043 3054 3064 3065 3074 3082 3084 3087 3092 3093 3095 3099 3107 3113 3116 3117 3119 3122 3126 3128 3129 3127 3127 3122 3124 3127 3127 3130 3132 3134 3135 3136
3001 3004 3007 3008 3011 3016 3019 3029 3034 3039 3034 3022 3027 3025 3036 3051 3053 3068 3071 3078 3078 3078 3088 3091 3097 3100 3104 3106 3113 3113 3118 3123 3123 3126 3121 3123 3111 3115 3121 3120 3124 3126 3127 3130 3130
2993 2997 2999 3000 3002 3010 3017 3021 3028 3033 3019 3018 3018 3020 3025 3035 3044 3054 3063 3066 3068 3070 3079 3073 3083 3090 3096 3095 3106 3104 3112 3117 3120 3119 3119 3116 3115 3105 3112 3112 3115 3119 3121 3124 3125
2985 2989 2991 2993 2995 3004 3010 3016 3021 3024 3003 3015 3009 3003 3014 3023 3030 3048 3053 3057 3065 3069 3071 3072 3079 3086 3084 3095 3100 3105 3110 3113 3115 3116 3106 3110 3112 3088 3095 3101 3108 3112 3115 3117 3118
2976 2979 2983 2985 2990 2998 3003 3009 3012 3002 3001 3008 2994 3002 3008 3014 3019 3035 3039 3041 3044 3057 3057 3064 3068 3074 3080 3087 3093 3097 3104 3108 3113 3111 3093 3102 3108 3060 3087 3093 3098 3103 3107 3110 3111
2966 2970 2973 2977 2983 2989 2995 2999 2988 2989 2993 3000 2999 3002 3005 3011 3011 3020 3033 3033 3038 3043 3049 3055 3060 3058 3065 3070 3079 3084 3092 3094 3096 3099 3089 3097 3085 3069 3079 3088 3093 3097 3100 3102 3103
2956 2960 2962 2972 2975 2980 2986 2986 2980 2978 2983 2994 2995 2996 3000 3004 3009 3016 3020 3020 3020 3027 3035 3044 3044 3050 3057 3063 3073 3076 3083 3082 3087 3087 3086 3079 3071 3072 3076 3080 3084 3087 3090 3093 3095
2946 2949 2955 2963 2967 2972 2973 2967 2968 2974 2979 2986 2986 2990 2992 2993 3002 3005 3007 3008 3012 3018 3026 3033 3039 3041 3051 3064 3064 3065 3070 3080 3081 3083 3085 3068 3064 3058 3063 3070 3076 3078 3081 3085 3087
2937 2940 2945 2954 2958 2960 2950 2952 2963 2969 2975 2980 2977 2982 2984 2988 2993 2996 2994 2999 3006 3011 3023 3027 3031 3032 3042 3038 3040 3054 3060 3065 3067 3070 3065 3065 3051 3051 3057 3064 3068 3072 3075 3078 3079
2928 2932 2933 2942 2946 2943 2942 2946 2955 2960 2968 2969 2970 2972 2973 2980 2981 2985 2982 2986 2993 3003 3005 3010 3024 3027 3024 3032 3040 3041 3046 3050 3049 3050 3055 3057 3030 3045 3048 3056 3061 3066 3070 3072 3073
2919 2923 2924 2929 2931 2934 2933 2937 2945 2951 2956 2957 2957 2961 2967 2969 2973 2972 2974 2981 2991 2994 2995 3007 3010 3017 3023 3030 3032 3028 3027 3035 3044 3046 3045 3052 3012 3041 3044 3049 3056 3060 3063 3065 3066
2912 2913 2915 2916 2920 2925 2926 2928 2934 2939 2947 2951 2952 2956 2957 2955 2958 2964 2967 2974 2982 2987 2993 2998 2997 3000 3000 3002 3016 3017 3023 3028 3034 3039 3026 3031 3019 3029 3038 3042 3049 3053 3056 3057 3058
2895 2894 2897 2899 2903 2907 2916 2926 2925 2928 2935 2943 2942 2944 2948 2948 2950 2954 2958 2967 2973 2980 2985 2989 2989 2995 2993 3004 3009 3009 3011 3015 3017 3016 3021 3004 3019 3023 3030 3037 3042 3045 3047 3048 3050
2881 2882 2886 2889 2896 2902 2909 2911 2917 2921 2928 2930 2931 2933 2942 2937 2939 2949 2955 2958 2960 2969 2974 2980 2978 2986 2984 2992 2999 3000 3003 3007 3005 3002 3012 3009 3007 3017 3025 3032 3033 3036 3039 3041 3041
2865 2872 2880 2883 2888 2895 2894 2902 2904 2913 2918 2923 2929 2931 2932 2932 2941 2946 2949 2954 2955 2959 2965 2970 2973 2978 2971 2984 2993 2989 2981 2984 2993 2998 2999 3001 2981 3012 3014 3018 3023 3028 3031 3034 3036